COSMOS 970 DEB, 64979

Orbit data source: Space-Track

COSMOS 970 DEB, 64979 is space debris in LEO originally from a launch on Wed, 21 Dec 1977 UTC launched from the Tyuratam Missile And Space Complex (TTMTR). Debris objects in space refer to the collection of defunct objects orbiting the Earth. Examples of debris include non-operational satellites, rocket bodies, and fragments generated from explosions, collisions, or faulty payload assembly.

Loading next visibility...
Identifier
64979, 1977-121CQ
Orbit
LEO
Country
Flag of CISCIS
Related business
Manufacturer
Unknown
Mission
Spacecraft
Bus & Motor
Unknown
Mass
Unknown
Launch date (UTC)
1977-12-21 (48 years ago)
Launch vehicle
Unknown
Launch site
Tyuratam Missile And Space Complex (TTMTR)
Object type
Payload
Rocket body
Debris
Shape & HBR
Unknown shape, 0.1 m
Radar Cross Section
Small (<0.1 m²)

Expand to show TLE details & history
Last TLE update: 1 week ago

TLE from 1 week ago
0 COSMOS 970 DEB
1 64979U 77121CQ  26162.08820684  .00000136  00000-0  23336-3 0  9996
2 64979  65.8335 103.9194 0131141 186.9251 173.0002 13.69438218325319
Epoch: 2026-06-11T02:07Z
TLE epoch observation values (Epoch: 2026-06-11T02:07:01.070Z)
Latitude
-0.00004°
Longitude
172.7279°
Altitude
1,099.655 km
Speed
7.255 km/s
True Right ascension
06h 55m 40s
True Declination
0° 00' 00"
Sunlit
Object was in daylight at epoch
Visualization orbit readout
Latitude
Unknown
Longitude
Unknown
Altitude
Unknown
Speed
Unknown
Apparent Right ascension
Unknown
Apparent Declination
Unknown
Sunlit
N/A
Visualization observer readout
Local Sidereal Time
07:13:17
Azimuth
Unknown
Elevation
Unknown
Doppler factor
Unknown
Orbital elements
Apogee altitude
1,096.868 km
Perigee altitude
903.35 km
Semi-major axis
7,378.246 km
Eccentricity
0.01311
Inclination
65.8335°
RAAN
103.9194°
Arg. of periapsis
186.9251°
True anomaly
173.1804°
Mean anomaly
173.0002°
Eccentric anomaly
173.09059°
Mean motion
3.42463 °/min
Orbital period
105.12 mins
BSTAR
0.00023336
Loading maneuver chart data...
Computing Atmospheric mass density...
Loading historical data...
Loading historical data...
Loading historical data...
Loading historical data...
Loading historical data...
Loading historical data...
Loading historical data...

Documentation

Showing up to 5 results
|